Regional Weather Roundup
Issued by NWS

Home | Current Version | Previous Version | Graphics & Text | Print | Product List | Glossary On
Versions: 1 2 3 4 5 6 7 8 9 10 11 12 13 14 15 16 17 18 19 20 21 22 23 24 25 26 27 28 29 30 31 32 33 34 35 36 37 38 39 40 41 42 43 44 45 46 47 48 49 50
000
ASUS45 KTFX 042110
RWRMT
MONTANA REGIONAL WEATHER ROUNDUP
NATIONAL WEATHER SERVICE GREAT FALLS MT
300 PM MDT SAT JUL 04 2015

NOTE: "FAIR" INDICATES FEW OR NO CLOUDS BELOW 12000 FEET WITH NO
SIGNIFICANT WEATHER AND/OR OBSTRUCTIONS TO VISIBILITY.

MTZ001>007-043-042200-
WEST OF THE DIVIDE

CITY           SKY/WX    TMP DP  RH WIND       PRES   REMARKS
KALISPELL      CLEAR     94  39  14 SE7G20    29.75F HX  90
MISSOULA       SUNNY     94  36  13 VRB7      29.80F
BUTTE          MOSUNNY   86  34  15 E8        29.98F
MULLAN PASS    SUNNY     79  42  26 MISG      30.04F
DEER LODGE       N/A     90  39  17 CALM      29.94F
EUREKA           N/A     91  43  18 E3        29.73F
HAMILTON         N/A     93  37  14 SE2       29.83F
LIBBY            N/A     93  41  16 SW8       29.74S
PLAINS           N/A     96  44  16 SW7       29.77F HX  92
RONAN            N/A     95  42  16 S6        29.85F HX  91
THOMPSON FALLS   N/A     98  39  13 W18       29.80F HX  93
$$

MTZ008-052>055-042200-
SOUTHWEST MONTANA

CITY           SKY/WX    TMP DP  RH WIND       PRES   REMARKS
BOZEMAN        SUNNY     89  43  20 VRB5      29.90F
DILLON         SUNNY     86  38  18 SW12G21   29.94F
W YELLOWSTONE  SUNNY     84  36  17 SW14G20   30.07F
THREE FORKS      N/A     92  41  17 SE6       29.89F
TWIN BRIDGES     N/A     90  36  14 SE5       29.94F
$$

MTZ009-010-012-014-046-048-049-054-042200-
EAST SLOPES AND CENTRAL MONTANA

CITY           SKY/WX    TMP DP  RH WIND       PRES   REMARKS
CUT BANK       SUNNY     81  50  33 NE13G18   29.89F
GREAT FALLS    SUNNY     85  51  31 VRB6      29.87F
MALMSTROM AFB  SUNNY     83  50  31 NW5G13    29.86F
HELENA         SUNNY     95  36  12 CALM      29.82F HX  90
CONRAD           N/A     80  61  52 N5        29.93F
$$

MTZ011-013-016-021-045-047-050-051-042200-
NORTH CENTRAL MONTANA

CITY           SKY/WX    TMP DP  RH WIND       PRES   REMARKS
HAVRE          SUNNY     88  53  30 VRB7G20   29.82S
LEWISTOWN      SUNNY     89  50  26 W10       29.89S
CHINOOK          N/A     84  55  37 NE5       29.81S
FORT BENTON      N/A     88  54  31 NW5       29.81F
$$

MTZ017>020-022>027-061-062-042200-
NORTHEAST MONTANA

CITY           SKY/WX    TMP DP  RH WIND       PRES   REMARKS
GLASGOW        SUNNY     94  52  24 NE13G21   29.70R HX  91
JORDAN           N/A     97  47  18 NW17G29   29.71F HX  93
SIDNEY         PTSUNNY   88  61  40 S7        29.67F
WOLF POINT     MOSUNNY   97  61  30 N20G28    29.66R HX  97
PLENTYWOOD       N/A     79  68  69 N21G26    29.72F
POPLAR           N/A     93  63  36 SE3       29.67R HX  94
SCOBEY           N/A     81  58  45 N20       29.77R
$$

MTZ028>42-056>058-042200-
SOUTHCENTRAL AND SOUTHEAST MONTANA

CITY           SKY/WX    TMP DP  RH WIND       PRES   REMARKS
BAKER          MOSUNNY   94  47  20 S6        29.78F HX  90
BILLINGS       MOSUNNY   98  33  10 NW10G24   29.81F HX  92
LIVINGSTON     SUNNY     93  42  17 NW8       29.88F
MILES CITY     SUNNY    100  49  17 SW15G25   29.70F HX  97
EKALAKA          N/A     93  45  19 CALM      29.82F
FORSYTH          N/A     99  48  18 W14G22    29.71F HX  95
LAUREL           N/A     98  46  17 W8        29.82F HX  94
ROUNDUP          N/A     94  43  17 N3        29.74F HX  90
$$

REGIONAL REPORTS...DAKOTAS

CITY           SKY/WX    TMP DP  RH WIND       PRES   REMARKS
WILLISTON      SUNNY     97  53  22 S12G17    29.64F HX  94
MINOT          SUNNY     88  66  48 S14G22    29.70F HX  90
DICKINSON      SUNNY     88  65  46 SW12      29.75F HX  90
BEACH          FAIR      86  64  48 SE8       29.76S
CROSBY         FAIR      68  64  88 E8        29.72R
BISMARCK       SUNNY     88  71  57 S12       29.75F HX  94
GRAND FORKS    MOSUNNY   86  67  52 S16G23    29.76F HAZE
FARGO          MOSUNNY   83  67  58 SE15G24   29.81F
BUFFALO SD       N/A     91  54  28 VRB7      29.74F
RAPID CITY     SUNNY     88  64  44 VRB5      29.83F
$$

REGIONAL REPORTS...WYOMING/IDAHO/WASHINGTON

CITY           SKY/WX    TMP DP  RH WIND       PRES   REMARKS
GILLETTE       SUNNY     91  45  20 E7        29.89F
SHERIDAN       MOSUNNY   94  46  19 SW7       29.85F HX  90
BUFFALO WY     MOSUNNY   89  49  25 S8        29.94F
CODY           SUNNY     91  43  18 NE8       29.91F
YELLOWSTONE LA   N/A     74  44  34 VRB3      30.18F
IDAHO FALLS    SUNNY     92  42  17 S10       29.94F
SALMON         MOSUNNY   91  41  17 NW6       29.83F
BOISE          PTSUNNY   96  42  15 W9        29.82F HX  92
SPOKANE        MOSUNNY   94  44  17 W13G23    29.78F HX  90
$$

REGIONAL REPORTS...ALBERTA

CITY           SKY/WX    TMP DP  RH WIND       PRES   REMARKS
EDMONTON       MOSUNNY   66  43  42 NW14G23   29.95R
CALGARY        PTSUNNY   73  48  40 E2        29.93S
LETHBRIDGE     MOSUNNY   75  55  50 E6G17     29.89F
MEDICINE HAT   PTSUNNY   82  48  30 VRB10     29.86S
WATERTON GATE    N/A     75  54  46 NE9         N/A
MILK RIVER       N/A     79  52  38 NE10        N/A
ONEFOUR          N/A     82  45  26 NE7         N/A
$$

REGIONAL REPORTS...SASKATCHEWAN

CITY           SKY/WX    TMP DP  RH WIND       PRES   REMARKS
SWIFT CURRENT  PTSUNNY   77  52  41 N10G17    29.86R
REGINA         MOSUNNY   75  61  60 N8        29.80R
SASKATOON      SMOKE     77  57  50 N16G24    29.83R VSB 1
CYPRESS HILLS    N/A     73  50  43 NE6         N/A
VAL MARIE        N/A     82  52  34 NE17G23     N/A
ROCKGLEN         N/A     75  57  53 N14G23      N/A
$$



USA.gov is the U.S. government's official web portal to all federal, state and local government web resources and services.